| time (UTC) | temp F | wind direction | speed knots | gust knots | rain 1hr in | rain 24hr in | rain mn in | humidity % | barometer mb |
| 20260506004557 | 45 | 244 | 0.9 | 1.7 | 0.01 | 0.27 | 0.09 | 97 | 1016.1 |
| 20260506004017 | 45 | 244 | 0.9 | 2.6 | 0.01 | 0.27 | 0.09 | 97 | 1016.1 |
| 20260506003517 | 45 | 244 | 0.9 | 2.6 | 0.01 | 0.27 | 0.09 | 97 | 1016.0 |
| 20260506003042 | 45 | 240 | 0.9 | 2.6 | 0.01 | 0.27 | 0.09 | 97 | 1016.0 |
| 20260506002519 | 45 | 240 | 0.0 | 2.6 | 0.01 | 0.27 | 0.09 | 97 | 1015.9 |
| 20260506002017 | 45 | 240 | 0.9 | 2.6 | 0.01 | 0.27 | 0.09 | 97 | 1016.0 |
| 20260506001544 | 45 | 240 | 0.9 | 2.6 | 0.00 | 0.26 | 0.08 | 97 | 1016.0 |
| 20260506001020 | 45 | 229 | 0.9 | 1.7 | 0.00 | 0.26 | 0.08 | 97 | 1015.8 |
| 20260506000524 | 45 | 0 | 0.0 | 0.0 | 0.00 | 0.26 | 0.08 | 97 | 1015.8 |
| 20260506000109 | 45 | 0 | 0.0 | 1.7 | 0.00 | 0.26 | 0.08 | 97 | 1015.8 |
| 20260505235519 | 45 | 0 | 0.0 | 2.6 | 0.00 | 0.28 | 0.08 | 97 | 1015.8 |
| 20260505235018 | 45 | 244 | 0.9 | 2.6 | 0.00 | 0.28 | 0.08 | 97 | 1015.8 |
| 20260505234545 | 45 | 244 | 1.7 | 2.6 | 0.00 | 0.28 | 0.08 | 97 | 1015.8 |
| 20260505234018 | 45 | 233 | 0.9 | 2.6 | 0.00 | 0.28 | 0.08 | 97 | 1015.7 |
| 20260505233517 | 45 | 233 | 0.9 | 2.6 | 0.00 | 0.28 | 0.08 | 97 | 1015.7 |
| 20260505233035 | 45 | 233 | 0.9 | 2.6 | 0.00 | 0.28 | 0.08 | 97 | 1015.7 |
| 20260505232522 | 45 | 233 | 0.0 | 1.7 | 0.00 | 0.28 | 0.08 | 97 | 1015.5 |
| 20260505232019 | 45 | 0 | 0.0 | 2.6 | 0.00 | 0.28 | 0.08 | 96 | 1015.6 |
| 20260505231534 | 45 | 233 | 0.9 | 3.5 | 0.00 | 0.28 | 0.08 | 96 | 1015.7 |
| 20260505231017 | 45 | 233 | 1.7 | 3.5 | 0.00 | 0.28 | 0.08 | 97 | 1015.5 |
| 20260505230518 | 45 | 247 | 0.9 | 3.5 | 0.00 | 0.28 | 0.08 | 97 | 1015.5 |
| 20260505230051 | 45 | 240 | 0.9 | 3.5 | 0.00 | 0.28 | 0.08 | 96 | 1015.5 |
| 20260505225523 | 45 | 240 | 1.7 | 3.5 | 0.00 | 0.41 | 0.08 | 96 | 1015.5 |
| 20260505225018 | 45 | 242 | 0.0 | 1.7 | 0.00 | 0.41 | 0.08 | 96 | 1015.5 |
| 20260505224540 | 45 | 0 | 0.0 | 0.0 | 0.01 | 0.41 | 0.08 | 97 | 1015.5 |
| 20260505224017 | 45 | 0 | 0.0 | 1.7 | 0.01 | 0.41 | 0.08 | 97 | 1015.5 |
| 20260505223518 | 45 | 0 | 0.0 | 1.7 | 0.01 | 0.41 | 0.08 | 96 | 1015.5 |
| 20260505223041 | 45 | 238 | 0.0 | 2.6 | 0.01 | 0.41 | 0.08 | 97 | 1015.6 |
| 20260505222522 | 44 | 238 | 0.9 | 3.5 | 0.01 | 0.41 | 0.08 | 97 | 1015.6 |
| 20260505222018 | 44 | 238 | 0.9 | 3.5 | 0.01 | 0.41 | 0.08 | 96 | 1015.7 |
| 20260505221535 | 44 | 238 | 2.6 | 3.5 | 0.01 | 0.41 | 0.08 | 96 | 1015.7 |
| 20260505221017 | 44 | 236 | 0.9 | 3.5 | 0.01 | 0.41 | 0.08 | 96 | 1015.7 |
| 20260505220517 | 44 | 236 | 0.9 | 3.5 | 0.01 | 0.41 | 0.08 | 96 | 1015.7 |
| 20260505220039 | 45 | 254 | 0.9 | 2.6 | 0.01 | 0.41 | 0.08 | 96 | 1015.7 |
| 20260505215518 | 44 | 265 | 0.0 | 1.7 | 0.01 | 0.60 | 0.08 | 96 | 1015.7 |
| 20260505215015 | 45 | 265 | 0.0 | 1.7 | 0.01 | 0.60 | 0.08 | 96 | 1015.8 |
| 20260505214534 | 45 | 250 | 0.9 | 1.7 | 0.00 | 0.58 | 0.07 | 96 | 1015.7 |
| 20260505214019 | 44 | 0 | 0.0 | 2.6 | 0.00 | 0.58 | 0.07 | 96 | 1015.8 |
| 20260505213515 | 44 | 219 | 0.9 | 2.6 | 0.00 | 0.58 | 0.07 | 96 | 1015.8 |
| 20260505213035 | 44 | 0 | 0.0 | 2.6 | 0.00 | 0.58 | 0.07 | 96 | 1015.8 |
| 20260505212518 | 44 | 238 | 0.9 | 2.6 | 0.00 | 0.58 | 0.07 | 96 | 1015.8 |
| 20260505212018 | 44 | 238 | 0.0 | 2.6 | 0.00 | 0.58 | 0.07 | 96 | 1015.7 |
| 20260505211537 | 44 | 238 | 0.9 | 2.6 | 0.00 | 0.58 | 0.07 | 96 | 1015.7 |
| 20260505211018 | 44 | 225 | 0.0 | 2.6 | 0.00 | 0.58 | 0.07 | 96 | 1015.8 |
| 20260505210517 | 44 | 0 | 0.0 | 3.5 | 0.00 | 0.58 | 0.07 | 96 | 1015.8 |
| 20260505210035 | 44 | 242 | 1.7 | 3.5 | 0.00 | 0.58 | 0.07 | 96 | 1015.8 |
| 20260505205518 | 44 | 244 | 0.9 | 2.6 | 0.00 | 0.67 | 0.07 | 96 | 1015.7 |
| 20260505205021 | 44 | 246 | 0.9 | 2.6 | 0.00 | 0.67 | 0.07 | 96 | 1015.7 |
| 20260505204545 | 44 | 0 | 0.0 | 1.7 | 0.00 | 0.67 | 0.07 | 96 | 1015.7 |
| 20260505204019 | 44 | 0 | 0.0 | 2.6 | 0.00 | 0.67 | 0.07 | 96 | 1015.6 |
| 20260505203519 | 44 | 250 | 0.9 | 2.6 | 0.00 | 0.67 | 0.07 | 96 | 1015.5 |
| 20260505203037 | 44 | 242 | 0.9 | 4.3 | 0.00 | 0.67 | 0.07 | 96 | 1015.6 |
| 20260505202518 | 44 | 249 | 0.9 | 4.3 | 0.00 | 0.67 | 0.07 | 96 | 1015.6 |
| 20260505202018 | 44 | 238 | 1.7 | 3.5 | 0.00 | 0.67 | 0.07 | 96 | 1015.6 |
| 20260505201534 | 44 | 241 | 0.9 | 2.6 | 0.00 | 0.67 | 0.07 | 96 | 1015.6 |
| 20260505201016 | 44 | 245 | 0.9 | 2.6 | 0.00 | 0.67 | 0.07 | 96 | 1015.5 |
| 20260505200515 | 44 | 245 | 1.7 | 2.6 | 0.00 | 0.67 | 0.07 | 96 | 1015.5 |
| 20260505200039 | 44 | 206 | 0.0 | 3.5 | 0.00 | 0.67 | 0.07 | 96 | 1015.6 |
| 20260505195515 | 44 | 0 | 0.9 | 4.3 | 0.00 | 0.67 | 0.07 | 96 | 1015.5 |
| 20260505195018 | 44 | 248 | 1.7 | 4.3 | 0.00 | 0.67 | 0.07 | 96 | 1015.5 |
| 20260505194543 | 44 | 242 | 1.7 | 4.3 | 0.00 | 0.67 | 0.07 | 96 | 1015.4 |
| 20260505194019 | 44 | 245 | 1.7 | 3.5 | 0.00 | 0.67 | 0.07 | 96 | 1015.6 |
| 20260505193517 | 44 | 250 | 0.9 | 2.6 | 0.00 | 0.67 | 0.07 | 95 | 1015.5 |
| 20260505193037 | 44 | 254 | 0.9 | 2.6 | 0.00 | 0.67 | 0.07 | 96 | 1015.4 |
| 20260505192514 | 44 | 0 | 0.0 | 2.6 | 0.00 | 0.67 | 0.07 | 95 | 1015.4 |
| 20260505192017 | 44 | 231 | 0.9 | 2.6 | 0.00 | 0.67 | 0.07 | 95 | 1015.4 |
| 20260505191547 | 44 | 221 | 0.9 | 3.5 | 0.00 | 0.67 | 0.07 | 95 | 1015.4 |
| 20260505191021 | 44 | 221 | 0.9 | 3.5 | 0.00 | 0.67 | 0.07 | 95 | 1015.3 |
| 20260505190520 | 44 | 227 | 0.9 | 3.5 | 0.00 | 0.67 | 0.07 | 95 | 1015.2 |
| 20260505190038 | 44 | 237 | 1.7 | 3.5 | 0.00 | 0.67 | 0.07 | 95 | 1015.1 |
| 20260505185517 | 44 | 242 | 1.7 | 3.5 | 0.00 | 0.69 | 0.07 | 95 | 1015.2 |
| 20260505185021 | 45 | 237 | 0.9 | 3.5 | 0.00 | 0.69 | 0.07 | 95 | 1015.2 |
| 20260505184537 | 45 | 248 | 0.0 | 2.6 | 0.00 | 0.69 | 0.07 | 95 | 1015.2 |
| 20260505184017 | 44 | 253 | 0.0 | 2.6 | 0.00 | 0.69 | 0.07 | 95 | 1015.2 |
| 20260505183518 | 44 | 0 | 0.9 | 2.6 | 0.00 | 0.69 | 0.07 | 95 | 1015.2 |
| 20260505183034 | 44 | 0 | 0.0 | 2.6 | 0.00 | 0.69 | 0.07 | 95 | 1015.1 |
| 20260505182515 | 44 | 0 | 0.0 | 2.6 | 0.00 | 0.69 | 0.07 | 95 | 1015.1 |
| 20260505182018 | 44 | 247 | 0.9 | 3.5 | 0.00 | 0.69 | 0.07 | 94 | 1015.2 |
| 20260505181537 | 44 | 246 | 0.9 | 3.5 | 0.00 | 0.69 | 0.07 | 95 | 1015.0 |
| 20260505181017 | 44 | 241 | 1.7 | 3.5 | 0.00 | 0.69 | 0.07 | 95 | 1015.0 |
| 20260505180518 | 44 | 246 | 0.9 | 2.6 | 0.00 | 0.69 | 0.07 | 95 | 1014.9 |
| 20260505180045 | 44 | 246 | 0.0 | 3.5 | 0.00 | 0.69 | 0.07 | 95 | 1014.7 |
| 20260505175518 | 44 | 224 | 0.9 | 3.5 | 0.00 | 0.74 | 0.07 | 94 | 1014.8 |
| 20260505175018 | 44 | 240 | 1.7 | 4.3 | 0.00 | 0.74 | 0.07 | 94 | 1014.6 |
| 20260505174534 | 44 | 233 | 1.7 | 4.3 | 0.00 | 0.74 | 0.07 | 94 | 1014.5 |
| 20260505174018 | 45 | 251 | 0.9 | 2.6 | 0.00 | 0.74 | 0.07 | 94 | 1014.5 |
| 20260505173516 | 45 | 246 | 0.9 | 2.6 | 0.00 | 0.74 | 0.07 | 94 | 1014.5 |
| 20260505173034 | 44 | 246 | 0.9 | 2.6 | 0.00 | 0.74 | 0.07 | 94 | 1014.5 |
| 20260505172517 | 44 | 246 | 0.9 | 3.5 | 0.00 | 0.74 | 0.07 | 93 | 1014.5 |
| 20260505172015 | 45 | 256 | 0.9 | 3.5 | 0.00 | 0.74 | 0.07 | 94 | 1014.6 |
| 20260505171534 | 44 | 251 | 0.9 | 3.5 | 0.00 | 0.74 | 0.07 | 93 | 1014.5 |
| 20260505171016 | 45 | 244 | 0.9 | 3.5 | 0.00 | 0.74 | 0.07 | 94 | 1014.5 |
| 20260505170518 | 45 | 242 | 0.9 | 4.3 | 0.00 | 0.74 | 0.07 | 94 | 1014.4 |
| 20260505170039 | 45 | 202 | 0.9 | 4.3 | 0.00 | 0.74 | 0.07 | 94 | 1014.4 |
| 20260505165517 | 45 | 212 | 0.9 | 4.3 | 0.00 | 0.77 | 0.07 | 94 | 1014.5 |
| 20260505165016 | 45 | 236 | 0.9 | 3.5 | 0.00 | 0.77 | 0.07 | 93 | 1014.3 |
| 20260505164534 | 45 | 225 | 1.7 | 3.5 | 0.00 | 0.77 | 0.07 | 94 | 1014.2 |
| 20260505164018 | 45 | 246 | 2.6 | 3.5 | 0.00 | 0.77 | 0.07 | 96 | 1014.3 |
| 20260505163519 | 45 | 262 | 0.0 | 2.6 | 0.00 | 0.77 | 0.07 | 97 | 1014.2 |
| 20260505163035 | 45 | 0 | 0.9 | 3.5 | 0.00 | 0.77 | 0.07 | 97 | 1014.1 |
| 20260505162515 | 45 | 256 | 0.9 | 4.3 | 0.00 | 0.77 | 0.07 | 97 | 1014.1 |
| 20260505162019 | 44 | 239 | 1.7 | 4.3 | 0.00 | 0.77 | 0.07 | 97 | 1014.1 |
| 20260505161535 | 44 | 237 | 1.7 | 4.3 | 0.00 | 0.77 | 0.07 | 97 | 1014.1 |
| 20260505161017 | 43 | 0 | 0.0 | 0.0 | 0.00 | 0.77 | 0.07 | 97 | 1014.0 |
| 20260505160517 | 43 | 0 | 0.0 | 0.0 | 0.00 | 0.77 | 0.07 | 97 | 1014.0 |
| 20260505153036 | 41 | 0 | 0.0 | 0.0 | 0.00 | 0.78 | 0.07 | 97 | 1014.2 |
| 20260505152518 | 41 | 0 | 0.0 | 0.0 | 0.00 | 0.78 | 0.07 | 97 | 1014.2 |
| 20260505152021 | 41 | 0 | 0.0 | 0.0 | 0.00 | 0.78 | 0.07 | 97 | 1014.2 |
| 20260505151536 | 41 | 0 | 0.0 | 0.0 | 0.00 | 0.78 | 0.07 | 97 | 1014.1 |
| 20260505151021 | 41 | 0 | 0.0 | 0.0 | 0.00 | 0.78 | 0.07 | 97 | 1014.2 |
| 20260505150520 | 41 | 0 | 0.0 | 0.0 | 0.00 | 0.78 | 0.07 | 96 | 1014.2 |
| 20260505140518 | 39 | 0 | 0.0 | 0.0 | 0.00 | 0.78 | 0.07 | 96 | 1013.7 |
| 20260505125018 | 39 | 0 | 0.0 | 0.0 | 0.01 | 0.82 | 0.07 | 96 | 1013.5 |
| 20260505124550 | 39 | 0 | 0.0 | 0.0 | 0.01 | 0.82 | 0.07 | 96 | 1013.6 |
| 20260505124018 | 39 | 0 | 0.0 | 0.0 | 0.01 | 0.82 | 0.07 | 96 | 1013.5 |
| 20260505123518 | 39 | 0 | 0.0 | 0.0 | 0.01 | 0.82 | 0.07 | 96 | 1013.4 |
| 20260505123049 | 39 | 0 | 0.0 | 0.0 | 0.02 | 0.82 | 0.07 | 96 | 1013.4 |
| 20260505122518 | 39 | 0 | 0.0 | 0.0 | 0.02 | 0.82 | 0.07 | 96 | 1013.2 |
| 20260505122018 | 39 | 0 | 0.0 | 0.0 | 0.02 | 0.82 | 0.07 | 96 | 1013.3 |
| 20260505121616 | 39 | 0 | 0.0 | 0.0 | 0.02 | 0.82 | 0.07 | 96 | 1013.4 |
| 20260505121021 | 39 | 0 | 0.0 | 0.0 | 0.02 | 0.82 | 0.07 | 96 | 1013.3 |
| 20260505120518 | 39 | 0 | 0.0 | 0.0 | 0.02 | 0.82 | 0.07 | 96 | 1013.2 |
| 20260505120042 | 39 | 0 | 0.0 | 0.0 | 0.02 | 0.81 | 0.06 | 96 | 1013.3 |
| 20260505115517 | 39 | 0 | 0.0 | 0.0 | 0.02 | 0.81 | 0.06 | 96 | 1013.3 |
| 20260505115018 | 39 | 0 | 0.0 | 0.0 | 0.02 | 0.81 | 0.06 | 96 | 1013.3 |
| 20260505114541 | 39 | 0 | 0.0 | 0.0 | 0.02 | 0.81 | 0.06 | 96 | 1013.3 |
| 20260505114017 | 39 | 0 | 0.0 | 0.0 | 0.02 | 0.81 | 0.06 | 96 | 1013.3 |
| 20260505113518 | 39 | 0 | 0.0 | 0.0 | 0.03 | 0.81 | 0.06 | 96 | 1013.2 |
| 20260505113046 | 39 | 0 | 0.0 | 0.0 | 0.02 | 0.80 | 0.05 | 96 | 1013.1 |
| 20260505112518 | 39 | 0 | 0.0 | 0.0 | 0.02 | 0.80 | 0.05 | 96 | 1013.3 |
| 20260505112018 | 39 | 0 | 0.0 | 0.0 | 0.02 | 0.80 | 0.05 | 96 | 1013.3 |
| 20260505111539 | 39 | 0 | 0.0 | 0.0 | 0.02 | 0.80 | 0.05 | 96 | 1013.3 |
| 20260505111018 | 39 | 0 | 0.0 | 0.0 | 0.03 | 0.80 | 0.05 | 96 | 1013.3 |
| 20260505110518 | 39 | 0 | 0.0 | 0.0 | 0.03 | 0.80 | 0.05 | 96 | 1013.4 |
| 20260505102019 | 39 | 0 | 0.0 | 0.0 | 0.02 | 0.78 | 0.03 | 96 | 1013.4 |
| 20260505101540 | 39 | 0 | 0.0 | 0.0 | 0.02 | 0.78 | 0.03 | 96 | 1013.5 |
| 20260505101018 | 39 | 0 | 0.0 | 0.0 | 0.01 | 0.77 | 0.02 | 96 | 1013.7 |
| 20260505100518 | 39 | 0 | 0.0 | 0.0 | 0.01 | 0.77 | 0.02 | 96 | 1013.7 |
| 20260505100043 | 40 | 0 | 0.0 | 0.0 | 0.01 | 0.77 | 0.02 | 96 | 1013.8 |
| 20260505095519 | 40 | 0 | 0.0 | 0.0 | 0.01 | 0.77 | 0.02 | 96 | 1013.9 |
| 20260505095019 | 40 | 0 | 0.0 | 0.0 | 0.01 | 0.77 | 0.02 | 96 | 1014.0 |
| 20260505094536 | 40 | 0 | 0.0 | 0.0 | 0.01 | 0.77 | 0.02 | 96 | 1014.1 |
| 20260505094018 | 40 | 0 | 0.0 | 0.0 | 0.01 | 0.77 | 0.02 | 96 | 1014.0 |
| 20260505093517 | 40 | 0 | 0.0 | 0.0 | 0.00 | 0.76 | 0.01 | 96 | 1014.0 |
| 20260505093040 | 40 | 0 | 0.0 | 0.0 | 0.00 | 0.76 | 0.01 | 96 | 1014.0 |
| 20260505092517 | 40 | 0 | 0.0 | 0.0 | 0.00 | 0.76 | 0.01 | 96 | 1014.0 |
| 20260505092018 | 40 | 0 | 0.0 | 0.0 | 0.00 | 0.76 | 0.01 | 96 | 1014.1 |
| 20260505091549 | 40 | 0 | 0.0 | 0.0 | 0.00 | 0.76 | 0.01 | 96 | 1014.2 |
| 20260505091021 | 40 | 0 | 0.0 | 0.0 | 0.00 | 0.76 | 0.01 | 96 | 1014.1 |
| 20260505090518 | 40 | 0 | 0.0 | 0.0 | 0.00 | 0.76 | 0.01 | 96 | 1014.0 |
| 20260505090041 | 40 | 0 | 0.0 | 0.0 | 0.00 | 0.76 | 0.01 | 96 | 1014.1 |
| 20260505085518 | 40 | 0 | 0.0 | 0.0 | 0.00 | 0.76 | 0.01 | 96 | 1014.1 |
| 20260505085022 | 40 | 0 | 0.0 | 0.0 | 0.00 | 0.76 | 0.01 | 96 | 1014.2 |
| 20260505084535 | 41 | 0 | 0.0 | 0.0 | 0.00 | 0.76 | 0.01 | 96 | 1014.2 |
| 20260505084018 | 41 | 0 | 0.0 | 0.0 | 0.00 | 0.76 | 0.01 | 96 | 1014.3 |
| 20260505083519 | 41 | 0 | 0.0 | 0.0 | 0.00 | 0.76 | 0.01 | 96 | 1014.5 |
| 20260505083046 | 41 | 0 | 0.0 | 0.0 | 0.00 | 0.76 | 0.01 | 96 | 1014.5 |
| 20260505082517 | 41 | 0 | 0.0 | 0.0 | 0.00 | 0.76 | 0.01 | 96 | 1014.5 |
| 20260505082018 | 41 | 0 | 0.0 | 0.0 | 0.00 | 0.76 | 0.01 | 96 | 1014.6 |
| 20260505081544 | 41 | 0 | 0.0 | 0.0 | 0.00 | 0.76 | 0.01 | 96 | 1014.5 |
| 20260505081017 | 41 | 0 | 0.0 | 0.0 | 0.00 | 0.76 | 0.01 | 96 | 1014.5 |
| 20260505080517 | 41 | 0 | 0.0 | 0.0 | 0.00 | 0.76 | 0.01 | 96 | 1014.5 |
| 20260505080048 | 41 | 0 | 0.0 | 0.0 | 0.00 | 0.76 | 0.01 | 96 | 1014.5 |
| 20260505075517 | 40 | 0 | 0.0 | 0.0 | 0.01 | 0.76 | 0.01 | 96 | 1014.5 |
| 20260505075018 | 40 | 0 | 0.0 | 0.0 | 0.02 | 0.76 | 0.01 | 96 | 1014.5 |
| 20260505074539 | 40 | 0 | 0.0 | 0.0 | 0.03 | 0.76 | 0.01 | 96 | 1014.5 |
| 20260505074022 | 40 | 0 | 0.0 | 0.0 | 0.04 | 0.76 | 0.01 | 96 | 1014.5 |
| 20260505073517 | 40 | 0 | 0.0 | 0.0 | 0.05 | 0.76 | 0.01 | 96 | 1014.5 |
| 20260505073043 | 40 | 0 | 0.0 | 0.0 | 0.07 | 0.76 | 0.01 | 96 | 1014.5 |
| 20260505072517 | 40 | 0 | 0.0 | 0.0 | 0.08 | 0.76 | 0.01 | 96 | 1014.4 |
| 20260505072019 | 40 | 0 | 0.0 | 0.0 | 0.10 | 0.76 | 0.01 | 96 | 1014.3 |
| 20260505071540 | 40 | 0 | 0.0 | 0.0 | 0.11 | 0.76 | 0.01 | 96 | 1014.4 |
| 20260505071022 | 40 | 0 | 0.0 | 0.0 | 0.11 | 0.76 | 0.01 | 96 | 1014.4 |
| 20260505070519 | 41 | 0 | 0.0 | 0.0 | 0.11 | 0.76 | 0.01 | 96 | 1014.2 |
| 20260505070041 | 41 | 0 | 0.0 | 0.0 | 0.11 | 0.75 | 0.00 | 96 | 1014.3 |
| 20260505065520 | 41 | 0 | 0.0 | 0.0 | 0.11 | 0.75 | 0.75 | 96 | 1014.3 |
| 20260505065019 | 41 | 0 | 0.0 | 0.0 | 0.11 | 0.74 | 0.74 | 96 | 1014.3 |
| 20260505064536 | 41 | 0 | 0.0 | 0.0 | 0.11 | 0.73 | 0.73 | 96 | 1014.3 |
| 20260505064019 | 41 | 0 | 0.0 | 0.0 | 0.10 | 0.72 | 0.72 | 96 | 1014.4 |
| 20260505063520 | 41 | 0 | 0.0 | 0.0 | 0.08 | 0.70 | 0.70 | 96 | 1014.5 |
| 20260505063045 | 41 | 0 | 0.0 | 0.0 | 0.08 | 0.69 | 0.69 | 96 | 1014.4 |
| 20260505062520 | 41 | 0 | 0.0 | 0.0 | 0.06 | 0.67 | 0.67 | 96 | 1014.5 |
| 20260505062026 | 41 | 0 | 0.0 | 1.7 | 0.05 | 0.66 | 0.66 | 96 | 1014.6 |
| 20260505061539 | 41 | 0 | 0.0 | 1.7 | 0.04 | 0.65 | 0.65 | 96 | 1014.7 |
| 20260505061024 | 41 | 0 | 0.0 | 1.7 | 0.04 | 0.65 | 0.65 | 96 | 1014.7 |
| 20260505060519 | 41 | 0 | 0.0 | 0.0 | 0.04 | 0.65 | 0.65 | 96 | 1014.8 |
| 20260505060046 | 41 | 0 | 0.0 | 0.0 | 0.03 | 0.64 | 0.64 | 96 | 1014.6 |
| 20260505055518 | 41 | 0 | 0.0 | 0.0 | 0.03 | 0.64 | 0.64 | 96 | 1014.5 |
| 20260505055018 | 41 | 0 | 0.0 | 0.0 | 0.02 | 0.63 | 0.63 | 96 | 1014.4 |
| 20260505054543 | 41 | 0 | 0.0 | 0.0 | 0.01 | 0.62 | 0.62 | 96 | 1014.4 |
| 20260505054017 | 41 | 0 | 0.0 | 0.0 | 0.01 | 0.62 | 0.62 | 96 | 1014.3 |
| 20260505053519 | 41 | 0 | 0.0 | 0.0 | 0.01 | 0.62 | 0.62 | 96 | 1014.5 |
| 20260505053043 | 41 | 0 | 0.0 | 0.0 | 0.01 | 0.61 | 0.61 | 96 | 1014.5 |
| 20260505052518 | 41 | 0 | 0.0 | 0.0 | 0.01 | 0.61 | 0.61 | 96 | 1014.6 |
| 20260505052019 | 41 | 0 | 0.0 | 0.0 | 0.01 | 0.61 | 0.61 | 96 | 1014.6 |
| 20260505051541 | 41 | 0 | 0.0 | 0.0 | 0.01 | 0.61 | 0.61 | 96 | 1014.6 |
| 20260505051019 | 41 | 0 | 0.0 | 0.0 | 0.01 | 0.61 | 0.61 | 96 | 1014.7 |
| 20260505050525 | 41 | 0 | 0.0 | 0.0 | 0.01 | 0.61 | 0.61 | 96 | 1014.8 |
| 20260505041549 | 41 | 240 | 0.9 | 3.5 | 0.02 | 0.60 | 0.60 | 96 | 1014.9 |
| 20260505041018 | 41 | 245 | 1.7 | 3.5 | 0.02 | 0.60 | 0.60 | 96 | 1014.9 |
| 20260505040518 | 41 | 271 | 0.9 | 2.6 | 0.02 | 0.60 | 0.60 | 96 | 1014.9 |
| 20260505040042 | 42 | 265 | 0.9 | 1.7 | 0.01 | 0.58 | 0.58 | 96 | 1014.7 |
| 20260505035521 | 42 | 265 | 0.9 | 3.5 | 0.01 | 0.58 | 0.58 | 96 | 1014.7 |
| 20260505035017 | 42 | 239 | 0.9 | 3.5 | 0.00 | 0.58 | 0.58 | 96 | 1014.6 |
| 20260505034537 | 42 | 251 | 0.9 | 3.5 | 0.00 | 0.58 | 0.58 | 96 | 1014.5 |
| 20260505034017 | 42 | 243 | 1.7 | 3.5 | 0.00 | 0.58 | 0.58 | 96 | 1014.4 |
| 20260505033517 | 42 | 251 | 0.9 | 2.6 | 0.01 | 0.58 | 0.58 | 96 | 1014.5 |
| 20260505033034 | 42 | 0 | 0.9 | 2.6 | 0.01 | 0.58 | 0.58 | 96 | 1014.6 |
| 20260505032522 | 42 | 0 | 0.0 | 0.0 | 0.01 | 0.58 | 0.58 | 96 | 1014.5 |
| 20260505032019 | 42 | 0 | 0.0 | 1.7 | 0.01 | 0.58 | 0.58 | 96 | 1014.5 |
| 20260505031543 | 42 | 0 | 0.0 | 1.7 | 0.01 | 0.58 | 0.58 | 96 | 1014.4 |
| 20260505031018 | 42 | 250 | 0.0 | 1.7 | 0.01 | 0.58 | 0.58 | 96 | 1014.3 |
| 20260505030517 | 42 | 0 | 0.0 | 0.0 | 0.01 | 0.58 | 0.58 | 96 | 1014.3 |
| 20260505030047 | 42 | 0 | 0.0 | 0.0 | 0.01 | 0.58 | 0.58 | 96 | 1014.4 |
| 20260505025521 | 42 | 0 | 0.0 | 0.0 | 0.01 | 0.58 | 0.58 | 96 | 1014.3 |
| 20260505025020 | 42 | 0 | 0.0 | 0.0 | 0.01 | 0.58 | 0.58 | 96 | 1014.2 |
| 20260505024536 | 42 | 0 | 0.0 | 0.0 | 0.01 | 0.58 | 0.58 | 96 | 1014.2 |
| 20260505024018 | 42 | 0 | 0.0 | 0.0 | 0.01 | 0.58 | 0.58 | 96 | 1014.2 |
| 20260505023519 | 42 | 0 | 0.0 | 0.0 | 0.00 | 0.57 | 0.57 | 96 | 1014.2 |
| 20260505023035 | 42 | 0 | 0.0 | 0.0 | 0.00 | 0.57 | 0.57 | 96 | 1014.2 |
| 20260505022519 | 42 | 0 | 0.0 | 0.0 | 0.00 | 0.57 | 0.57 | 96 | 1014.3 |
| 20260505022018 | 42 | 0 | 0.0 | 0.0 | 0.00 | 0.57 | 0.57 | 96 | 1014.2 |
| 20260505021551 | 42 | 0 | 0.0 | 0.0 | 0.00 | 0.57 | 0.57 | 96 | 1014.4 |
| 20260505021017 | 42 | 0 | 0.0 | 0.0 | 0.00 | 0.57 | 0.57 | 96 | 1014.4 |
| 20260505020516 | 42 | 0 | 0.0 | 0.0 | 0.00 | 0.57 | 0.57 | 96 | 1014.5 |
| 20260505020052 | 42 | 0 | 0.0 | 0.0 | 0.00 | 0.57 | 0.57 | 96 | 1014.6 |
| 20260505015520 | 42 | 0 | 0.0 | 0.0 | 0.00 | 0.57 | 0.57 | 96 | 1014.5 |
| 20260505015020 | 42 | 0 | 0.0 | 0.0 | 0.00 | 0.57 | 0.57 | 96 | 1014.6 |
| 20260505014543 | 42 | 0 | 0.0 | 0.0 | 0.00 | 0.57 | 0.57 | 96 | 1014.6 |
| 20260505014016 | 42 | 0 | 0.0 | 0.0 | 0.00 | 0.57 | 0.57 | 96 | 1014.6 |
| 20260505013515 | 42 | 0 | 0.0 | 0.0 | 0.00 | 0.57 | 0.57 | 96 | 1014.7 |
| 20260505013041 | 42 | 0 | 0.0 | 1.7 | 0.00 | 0.57 | 0.57 | 96 | 1014.6 |
| 20260505012519 | 42 | 0 | 0.0 | 1.7 | 0.00 | 0.57 | 0.57 | 96 | 1014.7 |
| 20260505012022 | 42 | 250 | 0.0 | 2.6 | 0.00 | 0.57 | 0.57 | 96 | 1014.6 |
| 20260505011536 | 42 | 250 | 0.9 | 2.6 | 0.00 | 0.57 | 0.57 | 96 | 1014.8 |
| 20260505011018 | 42 | 244 | 0.9 | 2.6 | 0.00 | 0.57 | 0.57 | 96 | 1014.7 |
| 20260505010519 | 42 | 256 | 1.7 | 2.6 | 0.00 | 0.57 | 0.57 | 96 | 1014.7 |
| 20260505010056 | 42 | 252 | 1.7 | 2.6 | 0.00 | 0.57 | 0.57 | 96 | 1014.7 |
| 20260505005520 | 42 | 250 | 0.9 | 3.5 | 0.00 | 0.57 | 0.57 | 96 | 1014.7 |
| 20260505005021 | 42 | 255 | 1.7 | 3.5 | 0.00 | 0.57 | 0.57 | 96 | 1015.0 |